Mount Ida, AR

8:20 AM CST on February 09, 2016 (GMT -0600)
Mount Ida

Weather History for KMWT - September, 2013

Change the Weather History Date:

Monday, September 23, 2013

  Actual Average (KHOT) Record (KHOT)
Temperature  
Mean Temperature 63 °F -  
Max Temperature 81 °F 84 °F 98 °F (1948)
Min Temperature 46 °F 58 °F 43 °F (1982)
Degree Days  
Heating Degree Days 2    
Growing Degree Days 13 (Base 50)    
Moisture  
Dew Point 53 °F    
Average Humidity 75    
Maximum Humidity 100    
Minimum Humidity 39    
Precipitation  
Precipitation 0.00 in - - ()
Sea Level Pressure  
Sea Level Pressure 29.86 in    
Wind  
Wind Speed 1 mph (SE)    
Max Wind Speed 8 mph    
Max Gust Speed -    
Visibility 9 miles    
Events      
Averages and records for this station are not official NWS values.
T = Trace of Precipitation, MM = Missing Value Source: NWS Daily Summary

Daily Weather History Graph

Daily Weather History Graph

Search for Another Location

Airport or City:

Trip Planner

Search our weather history database for the weather conditions in past years. The results will help you decide how hot, cold, wet, or windy it might be!

Date:

Astronomy

Sep. 23, 2013 Rise Set
Actual Time 7:03 AM CDT 7:09 PM CDT
Civil Twilight 6:38 AM CDT 7:34 PM CDT
Nautical Twilight 6:08 AM CDT 8:03 PM CDT
Astronomical Twilight 5:39 AM CDT 8:33 PM CDT
Moon 9:53 PM CDT (9/23) 11:11 AM CDT (9/23)
Length of Visible Light 12h 56m
Length of Day
12h 06m
Waning Gibbous, 81% of the Moon is Illuminated
Sep 23
Waning Gibbous
Sep 26
Last Quarter
Oct 4
New
Oct 11
First Quarter
Oct 18
Full

Hourly Weather History & Observations

Time (CDT) Temp. Heat Index Dew Point Humidity Pressure Visibility Wind Dir Wind Speed Gust Speed Precip Events Conditions
12:53 AM 52.0 °F - 51.1 °F 97% 29.88 in 8.0 mi Calm Calm - N/A   Clear
1:53 AM 52.0 °F - 50.0 °F 93% 29.87 in 9.0 mi Calm Calm - N/A   Clear
2:53 AM 50.0 °F - 48.9 °F 96% 29.87 in 8.0 mi Calm Calm - N/A   Clear
3:53 AM 50.0 °F - 48.9 °F 96% 29.86 in 8.0 mi Calm Calm - N/A   Clear
4:53 AM 48.9 °F - 48.0 °F 97% 29.88 in 7.0 mi Calm Calm - N/A   Clear
5:53 AM 48.0 °F - 46.9 °F 96% 29.88 in 6.0 mi Calm Calm - N/A   Clear
6:53 AM 46.9 °F - 46.9 °F 100% 29.90 in 7.0 mi Calm Calm - N/A   Clear
7:53 AM 48.9 °F - 46.9 °F 93% 29.91 in 8.0 mi Calm Calm - N/A   Clear
8:53 AM 55.9 °F - 54.0 °F 93% 29.91 in 10.0 mi Calm Calm - N/A   Clear
9:53 AM 64.9 °F - 55.9 °F 73% 29.91 in 10.0 mi SE 4.6 mph - N/A   Clear
10:53 AM 71.1 °F - 55.9 °F 59% 29.91 in 10.0 mi Calm Calm - N/A   Clear
11:53 AM 73.9 °F - 54.0 °F 50% 29.89 in 10.0 mi ESE 8.1 mph - N/A   Clear
12:53 PM 75.9 °F - 55.0 °F 48% 29.87 in 10.0 mi Variable 4.6 mph - N/A   Clear
1:53 PM 78.1 °F - 54.0 °F 43% 29.84 in 10.0 mi Variable 3.5 mph - N/A   Clear
2:53 PM 80.1 °F 80.0 °F 54.0 °F 40% 29.82 in 10.0 mi Variable 4.6 mph - N/A   Clear
3:53 PM 80.1 °F 79.9 °F 53.1 °F 39% 29.81 in 10.0 mi SE 4.6 mph - N/A   Clear
4:53 PM 79.0 °F - 53.1 °F 40% 29.80 in 10.0 mi Variable 3.5 mph - N/A   Clear
5:53 PM 78.1 °F - 54.0 °F 43% 29.81 in 10.0 mi Variable 3.5 mph - N/A   Clear
6:53 PM 72.0 °F - 55.9 °F 57% 29.83 in 10.0 mi Calm Calm - N/A   Clear
7:53 PM 64.9 °F - 57.0 °F 75% 29.84 in 10.0 mi Calm Calm - N/A   Clear
8:53 PM 62.1 °F - 57.0 °F 84% 29.86 in 10.0 mi Calm Calm - N/A   Clear
9:53 PM 62.1 °F - 57.9 °F 86% 29.85 in 10.0 mi Calm Calm - N/A   Clear
10:53 PM 59.0 °F - 57.9 °F 96% 29.86 in 9.0 mi Calm Calm - N/A   Clear
11:53 PM 57.9 °F - 57.0 °F 97% 29.86 in 8.0 mi Calm Calm - N/A   Clear